Location: Grasslands National Park East Block
(49.0708°N, 106.5295°W)
Time: 21:02:34
(UTC-06:00)

Vanguard 1 - Pass Details

Date: 25 September 2019
Orbit: 653 x 3830 km, 34.3° (Epoch: 14 October)

Event Time Altitude Azimuth Distance (km) Brightness Sun altitude
Rises 22:02:04 0° 165° (SSE) 6,833 - -29.1°
Reaches altitude 10° 22:12:49 10° 136° (SE) 6,534 - -30.5°
Maximum altitude 22:17:39 11° 123° (ESE) 6,637 - -31.1°
Drops below altitude 10° 22:22:41 10° 110° (ESE) 6,880 - -31.7°
Exits shadow 22:32:59 - 87° (E) 7,701 14.3 -32.9°
Sets 22:35:05 0° 83° (E) 7,906 14.4 -33.2°
